Location: Bellerive
(46.9237°N, 7.0223°E)
Time: 23:06:01
(UTC+00:00)

Cosmos 1437 - Pass Details

Date: 09 April 2020
Orbit: 373 x 376 km, 81.2° (Epoch: 03 June)

Event Time Altitude Azimuth Distance (km) Brightness Sun altitude
Rises 19:01:54 0° 341° (NNW) 2,260 7.1 -8.8°
Reaches altitude 10° 19:04:00 10° 332° (NNW) 1,400 6.2 -9.2°
Maximum altitude 19:06:47 34° 265° (W) 645 4.4 -9.6°
Drops below altitude 10° 19:09:33 10° 198° (SSW) 1,383 5.3 -10.0°
Sets 19:11:36 0° 188° (S) 2,226 6.3 -10.4°
